Simultaneous Nadir Overpasses (SNOs) Predictions

Prediction of SNOs between GOES-16 and METOP-C Satellite Orbit:

Table of predicted SNOs for the next 14.0 days since TLE Epoch: 3/11/2023
Index Date Time (GOES-16) GOES-16 Lat,Lon METOP-C Lat,Lon Distance(km) Time Diff (sec)
1 03/11/2023 14:21:33 0.05, -75.21 -0.42, -73.14 236.21 80
2 03/13/2023 02:43:11 -0.05, -75.20 -0.63, -77.72 287.68 80
3 03/14/2023 02:19:52 -0.04, -75.21 0.54, -72.74 282.13 80
4 03/15/2023 14:41:22 0.05, -75.23 0.50, -77.29 234.89 80
5 03/16/2023 14:18:02 0.04, -75.23 -0.61, -72.29 335.12 80
6 03/18/2023 02:39:40 -0.05, -75.23 -0.41, -76.88 188.01 80
7 03/19/2023 02:16:19 -0.04, -75.24 0.71, -71.88 382.53 80
8 03/20/2023 14:37:50 0.05, -75.27 0.32, -76.44 133.17 80
9 03/21/2023 14:14:29 0.04, -75.29 -0.80, -71.44 438.09 80
10 03/23/2023 02:36:06 -0.05, -75.30 -0.23, -76.02 83.08 80
11 03/24/2023 02:12:46 -0.04, -75.32 0.91, -71.03 488.58 80
